Weather History for Bakersfield, CA

Change the Weather History Date:

Saturday, November 17, 2012

  Actual Average Record
Temperature  
Mean Temperature 66 °F 54 °F  
Max Temperature 76 °F 65 °F 84 °F (2008)
Min Temperature 55 °F 44 °F 29 °F (1905)
Degree Days  
Heating Degree Days 0    
Month to date heating degree days 120  
Since 1 July heating degree days 156  
Cooling Degree Days 1    
Month to date cooling degree days 9  
Year to date cooling degree days 2579  
Growing Degree Days 15 (Base 50)    
Moisture  
Dew Point 50 °F    
Average Humidity 58    
Maximum Humidity 80    
Minimum Humidity 36    
Precipitation  
Precipitation 0.05 in 0.02 in 0.32 in (1930)
Month to date precipitation 0.06 0.33  
Year to date precipitation 3.72 5.14  
Since 1 July precipitation 0.10 0.75  
Snow  
Snow 0.00 in - - ()
Month to date snowfall 0.0  
Since 1 July snowfall 0.0  
Since 1 September snowfall 0.0  
Snow Depth 0.00 in    
Sea Level Pressure  
Sea Level Pressure 29.98 in    
Wind  
Wind Speed 7 mph (North)    
Max Wind Speed 16 mph    
Max Gust Speed 20 mph    
Visibility 10 miles    
Events Rain    
T = Trace of Precipitation, MM = Missing Value Source: NWS Daily Summary

Daily Weather History Graph

Daily Weather History Graph

Search for Another Location

Airport:

Trip Planner

Search our weather history database for the weather conditions in past years. The results will help you decide how hot, cold, wet, or windy it might be!

Date:

Astronomy

Nov. 17, 2012 Rise Set
Actual Time 6:34 AM PST 4:48 PM PST
Civil Twilight 6:06 AM PST 5:15 PM PST
Nautical Twilight 5:36 AM PST 5:46 PM PST
Astronomical Twilight 5:05 AM PST 6:16 PM PST
Moon 10:22 AM PST (11/17) 9:03 PM PST (11/17)
Length of Visible Light 11h 08m
Length of Day
10h 14m
Waxing Crescent, 21% of the Moon is Illuminated
Nov 17
Waxing Crescent
Nov 20
First Quarter
Nov 28
Full
Dec 6
Last Quarter
Dec 13
New

Hourly Weather History & Observations

Time (PST) Temp. Dew Point Humidity Pressure Visibility Wind Dir Wind Speed Gust Speed Precip Events Conditions
12:54 AM 62.1 °F 46.0 °F 56% 29.95 in 10.0 mi East 8.1 mph - N/A   Scattered Clouds
1:54 AM 61.0 °F 45.0 °F 56% 29.94 in 10.0 mi East 3.5 mph - N/A   Overcast
2:54 AM 57.9 °F 46.0 °F 65% 29.93 in 10.0 mi Calm Calm - N/A   Overcast
3:54 AM 57.9 °F 46.0 °F 65% 29.92 in 10.0 mi East 3.5 mph - N/A   Overcast
4:54 AM 57.0 °F 48.0 °F 72% 29.97 in 8.0 mi NNW 5.8 mph - 0.00 in Rain Light Rain
5:54 AM 57.9 °F 51.1 °F 78% 29.96 in 8.0 mi NNE 6.9 mph - 0.05 in Rain Light Rain
6:54 AM 59.0 °F 51.1 °F 75% 29.96 in 10.0 mi East 3.5 mph - 0.00 in   Overcast
7:54 AM 57.0 °F 52.0 °F 83% 29.98 in 10.0 mi Calm Calm - 0.00 in   Mostly Cloudy
8:54 AM 59.0 °F 53.1 °F 81% 29.99 in 9.0 mi West 5.8 mph - N/A   Overcast
9:54 AM 62.1 °F 54.0 °F 75% 30.00 in 10.0 mi NNW 3.5 mph - N/A   Overcast
10:54 AM 66.9 °F 50.0 °F 54% 29.99 in 10.0 mi ESE 5.8 mph - N/A   Overcast
11:54 AM 71.1 °F 48.9 °F 45% 29.96 in 10.0 mi SSE 6.9 mph - N/A   Overcast
12:54 PM 75.0 °F 46.0 °F 36% 29.94 in 10.0 mi East 4.6 mph - N/A   Mostly Cloudy
1:54 PM 75.0 °F 46.0 °F 36% 29.92 in 10.0 mi West 4.6 mph - N/A   Partly Cloudy
2:54 PM 73.9 °F 46.9 °F 38% 29.93 in 10.0 mi WNW 9.2 mph - N/A   Mostly Cloudy
3:54 PM 71.1 °F 50.0 °F 47% 29.94 in 10.0 mi NW 10.4 mph - N/A   Overcast
4:54 PM 69.1 °F 51.1 °F 53% 29.94 in 10.0 mi NNW 6.9 mph - N/A   Overcast
5:54 PM 66.0 °F 53.1 °F 63% 29.97 in 10.0 mi North 11.5 mph - N/A   Overcast
6:54 PM 64.0 °F 53.1 °F 67% 29.99 in 10.0 mi North 11.5 mph - N/A   Mostly Cloudy
7:54 PM 62.1 °F 54.0 °F 75% 30.01 in 10.0 mi North 16.1 mph - N/A   Mostly Cloudy
8:54 PM 61.0 °F 52.0 °F 72% 30.04 in 10.0 mi North 11.5 mph - N/A   Scattered Clouds
9:54 PM 60.1 °F 52.0 °F 75% 30.06 in 10.0 mi North 11.5 mph - N/A   Scattered Clouds
10:54 PM 60.1 °F 51.1 °F 72% 30.07 in 10.0 mi North 11.5 mph - N/A   Overcast
11:54 PM 61.0 °F 48.9 °F 64% 30.08 in 10.0 mi North 10.4 mph - N/A   Overcast